This demonstration page uses our WeatherBlox Daily Observations layout. Learn more.

Left ArrowRight Arrow

Hourly Observations for September 9, 2020

Temp ( °F °C ) Dew Point ( °F °C ) Humidity (%) Winds ( mph kmh ) Pressure ( in mb ) Visibility ( mi km ) Precip ( " mm )
12:54 am 00:54 Cloudy with Light Rain 44 6.7 40 4.4 85 85 NNE 15 24 30.31 1026 9 14.48406 0.04 1.016
1:13 am 01:13 Cloudy with Light Rain 44 6.7 40 4.4 85 85 NNE 16 26 30.32 1027 10 16.0934 0.001 0.001
1:29 am 01:29 Cloudy 44 6.7 40 4.4 85 85 NNE 17 28 30.32 1027 10 16.0934 0.001 0.001
1:37 am 01:37 Cloudy 44 6.7 40 4.4 85 85 NNE 16 26 30.33 1027 10 16.0934 0.001 0.001
1:54 am 01:54 Cloudy with Light Rain 44 6.7 40 4.4 85 85 NNE 15 24 30.31 1026 10 16.0934 0.001 0.001
2:54 am 02:54 Cloudy with Light Rain 43 6.1 40 4.4 89 89 N 15 24 30.32 1027 8 12.87472 0.01 0.254
3:54 am 03:54 Cloudy with Light Rain 44 6.7 40 4.4 85 85 NNE 20 31 30.3 1026 9 14.48406 0.09 2.286
4:54 am 04:54 Cloudy with Heavy Rain 44 6.7 40 4.4 85 85 N 16 26 30.31 1026 6 9.65604 0.02 0.508
5:54 am 05:54 Cloudy with Light Rain 44 6.7 41 5 89 89 N 14 22 30.32 1027 10 16.0934 0.05 1.27
6:52 am 06:52 Cloudy with Light Rain 45 7 41 5 87 87 NNE 17 28 30.32 1027 8 12.87472 0.001 0.001
6:54 am 06:54 Cloudy with Light Rain 45 7.2 41 5 86 86 NNE 17 28 30.31 1026 8 12.87472 0.001 0.001
7:45 am 07:45 Cloudy with Light Rain 44 6.7 41 5 89 89 N 16 26 30.36 1028 6 9.65604 0.001 0.001
7:54 am 07:54 Cloudy with Light Rain 44 6.7 41 5 89 89 N 14 22 30.35 1028 6 9.65604 0.01 0.254
8:10 am 08:10 Cloudy with Light Rain 45 7.2 41 5 86 86 N 14 22 30.36 1028 7 11.26538 0.01 0.254
8:33 am 08:33 Cloudy with Light Rain 45 7.2 41 5 86 86 N 16 26 30.36 1028 3 4.82802 0.01 0.254
8:54 am 08:54 Cloudy with Light Rain 45 7.2 42 5.6 90 90 N 16 26 30.36 1028 3 4.82802 0.01 0.254
9:05 am 09:05 Cloudy with Light Rain 45 7.2 42 5.6 90 90 N 17 28 30.35 1028 3 4.82802 0.001 0.001
9:54 am 09:54 Cloudy with Light Rain 46 7.8 42 5.6 86 86 NNE 20 31 30.37 1028 3 4.82802 0.02 0.508
10:54 am 10:54 Cloudy 47 8.3 42 5.6 83 83 NNE 20 31 30.36 1028 9 14.48406 0.001 0.001
11:54 am 11:54 Cloudy 47 8.3 43 6.1 86 86 NNE 16 26 30.37 1029 10 16.0934 0.001 0.001
12:54 pm 12:54 Cloudy with Light Rain 48 8.9 43 6.1 83 83 NNE 17 28 30.38 1029 9 14.48406 0.001 0.001
1:54 pm 13:54 Cloudy 49 9.4 43 6.1 80 80 NNE 18 30 30.37 1029 10 16.0934 0.001 0.001
2:54 pm 14:54 Cloudy with Light Rain 49 9.4 44 6.7 83 83 N 17 28 30.37 1029 8 12.87472 0.001 0.001
3:14 pm 15:14 Cloudy with Light Rain 48 8.9 44 6.7 86 86 NNE 13 20 30.38 1029 7 11.26538 0.01 0.254
3:54 pm 15:54 Cloudy with Light Rain 48 8.9 44 6.7 86 86 NNE 15 24 30.37 1029 8 12.87472 0.02 0.508
4:19 pm 16:19 Cloudy with Light Rain 48 8.9 44 6.7 86 86 N 15 24 30.37 1028 8 12.87472 0.01 0.254
4:40 pm 16:40 Cloudy with Light Rain 48 8.9 44 6.7 86 86 N 13 20 30.38 1029 8 12.87472 0.02 0.508
4:54 pm 16:54 Cloudy with Light Rain 48 8.9 43 6.1 83 83 NNE 15 24 30.39 1029 8 12.87472 0.02 0.508
5:13 pm 17:13 Cloudy with Rain 47 8.3 44 6.7 90 90 N 15 24 30.39 1029 4 6.43736 0.03 0.762
5:35 pm 17:35 Cloudy with Rain 47 8.3 44 6.7 90 90 N 13 20 30.39 1029 4 6.43736 0.06 1.524
5:54 pm 17:54 Cloudy with Light Rain 48 8.9 44 6.7 86 86 N 13 20 30.38 1029 5 8.0467 0.08 2.032
6:43 pm 18:43 Cloudy with Light Rain 47 8.3 43 6.1 86 86 NNE 18 30 30.39 1029 9 14.48406 0.01 0.254
6:54 pm 18:54 Cloudy with Light Rain 47 8.3 43 6.1 86 86 NNE 15 24 30.38 1029 7 11.26538 0.01 0.254
7:44 pm 19:44 Cloudy with Light Rain 47 8.3 43 6.1 86 86 NNE 14 22 30.39 1029 9 14.48406 0.01 0.254
7:54 pm 19:54 Cloudy with Light Rain 47 8.3 43 6.1 86 86 NNE 15 24 30.38 1029 9 14.48406 0.01 0.254
8:54 pm 20:54 Cloudy with Light Rain 47 8.3 43 6.1 86 86 NNE 15 24 30.38 1029 10 16.0934 0.02 0.508
9:35 pm 21:35 Cloudy with Light Rain 47 8.3 43 6.1 86 86 N 12 19 30.4 1029 9 14.48406 0.01 0.254
9:54 pm 21:54 Cloudy with Light Rain 47 8.3 43 6.1 86 86 NNE 13 20 30.41 1030 10 16.0934 0.01 0.254
10:09 pm 22:09 Cloudy with Light Rain 47 8.3 43 6.1 86 86 N 12 19 30.42 1030 9 14.48406 0.001 0.001
10:39 pm 22:39 Cloudy with Light Rain 46 7.8 43 6.1 89 89 N 9 15 30.43 1031 9 14.48406 0.01 0.254
10:54 pm 22:54 Cloudy with Light Rain 46 7.8 43 6.1 89 89 NNE 10 17 30.41 1030 8 12.87472 0.02 0.508
11:16 pm 23:16 Cloudy with Rain 46 7.8 43 6.1 89 89 N 12 19 30.42 1030 6 9.65604 0.01 0.254
11:45 pm 23:45 Cloudy with Rain 46 7.8 43 6.1 89 89 N 12 19 30.42 1030 6 9.65604 0.06 1.524

Powered by AerisWeather